Little Bear Creek Observed Data For Previous 48 Hours

Caption
Day and Hour Reservoir Elevation (behind dam)* Tailwater Elevation (below dam)* Average Hourly Discharge*
11/11/2018 1 AM CST 617.41 545.91 305
11/11/2018 2 AM CST 617.39 545.89 305
11/11/2018 3 AM CST 617.38 545.90 305
11/11/2018 4 AM CST 617.37 545.92 305
11/11/2018 5 AM CST 617.36 545.88 305
11/11/2018 6 AM CST 617.34 545.89 305
11/11/2018 7 AM CST 617.33 545.90 305
11/11/2018 8 AM CST 617.31 545.91 305
11/11/2018 9 AM CST 617.29 545.90 305
11/11/2018 10 AM CST 617.27 545.90 305
11/11/2018 11 AM CST 617.26 545.91 305
11/11/2018 12 PM CST 617.25 545.89 305
11/11/2018 1 PM CST 617.22 545.89 305
11/11/2018 2 PM CST 617.22 545.91 305
11/11/2018 3 PM CST 617.20 545.88 305
11/11/2018 4 PM CST 617.19 545.88 305
11/11/2018 5 PM CST 617.17 545.89 305
11/11/2018 6 PM CST 617.16 545.88 305
11/11/2018 7 PM CST 617.14 545.92 305
11/11/2018 8 PM CST 617.12 545.89 305
11/11/2018 9 PM CST 617.11 545.89 305
11/11/2018 10 PM CST 617.10 545.88 305
11/11/2018 11 PM CST 617.08 545.88 305
11/12/2018 12 AM CST 617.07 545.90 305
11/12/2018 1 AM CST 617.06 545.90 305
11/12/2018 2 AM CST 617.05 545.89 305
11/12/2018 3 AM CST 617.03 545.88 305
11/12/2018 4 AM CST 617.02 545.89 305
11/12/2018 5 AM CST 617.01 545.91 305
11/12/2018 6 AM CST 617.01 545.88 305
11/12/2018 7 AM CST 617.01 545.89 305
11/12/2018 8 AM CST 617.01 545.91 305
11/12/2018 9 AM CST 617.00 545.92 305
11/12/2018 10 AM CST 617.02 545.98 305
11/12/2018 11 AM CST 617.02 546.01 305
11/12/2018 12 PM CST 617.03 546.00 305
11/12/2018 1 PM CST 617.03 545.96 305
11/12/2018 2 PM CST 617.03 545.97 305
11/12/2018 3 PM CST 617.03 545.95 305
11/12/2018 4 PM CST 617.03 545.95 305
11/12/2018 5 PM CST 617.03 545.92 305
11/12/2018 6 PM CST 617.04 545.92 305
11/12/2018 7 PM CST 617.04 545.91 305
11/12/2018 8 PM CST 617.04 545.93 305
11/12/2018 9 PM CST 617.04 545.91 305
11/12/2018 10 PM CST 617.04 545.93 305
11/12/2018 11 PM CST 617.04 545.94 305
11/13/2018 12 AM CST 617.04 545.94 305
11/13/2018 1 AM CST 617.04 545.92 305
11/13/2018 2 AM CST 617.03 545.89 305
11/13/2018 3 AM CST 617.02 545.91 305
11/13/2018 4 AM CST 617.02 545.92 305
11/13/2018 5 AM CST 617.01 545.90 305
11/13/2018 6 AM CST 617.00 545.90 305
11/13/2018 7 AM CST 617.00 545.92 305
11/13/2018 8 AM CST 616.99 545.89 305

Elevations are in feet above sea level. Discharges are in cubic feet per second and are reported at the end of the hour.